Location: Unspecified
(0.0000°N, 0.0000°E)
Time: 11:28:17
(UTC+02:00)

Cosmos 1295 Rocket - Visible Passes

Search period start: 05 July 2015 00:00
Search period end: 15 July 2015 00:00
Orbit: 944 x 994 km, 82.9° (Epoch: 04 July)

Date Brightness Start Highest point End Pass type
(mag) Time Alt. Az. Time Alt. Az. Time Alt. Az.
05 Jul 6.7 06:50:24 10° NNE 06:55:12 26° E 07:00:13 10° SE visible
06 Jul 5.3 07:12:47 10° N 07:18:41 55° E 07:24:38 10° SSE visible
07 Jul 4.4 07:36:04 10° N 07:42:06 71° W 07:48:10 10° S visible
07 Jul 7.5 20:43:32 10° WSW 20:46:37 13° W 20:49:09 10° WNW visible
08 Jul 7.1 06:16:38 10° NE 06:20:24 18° E 06:24:33 10° SE visible
09 Jul 5.9 06:38:24 10° NNE 06:43:56 39° E 06:49:35 10° SSE visible
10 Jul 4.5 07:01:18 10° N 07:07:22 83° E 07:13:29 10° S visible
11 Jul 7.3 05:43:40 10° ENE 05:45:35 12° E 05:48:04 10° ESE visible
11 Jul 4.7 07:25:01 10° NNW 07:30:48 47° W 07:36:36 10° SSW visible
12 Jul 6.4 06:04:14 10° NNE 06:09:10 27° E 06:14:18 10° SE visible
13 Jul 5.0 06:26:43 10° N 06:32:38 58° E 06:38:39 10° SSE visible
14 Jul 4.4 06:50:03 10° NNW 06:56:03 67° W 07:02:07 10° S visible
